Zurück zum Katalog

COSMOS 2271

AktivMilitärPO
NORAD 23002·PAYLOAD·🇷🇺 Russia

Gestartet Feb 12, 1994 von Plesetsk Cosmodrome

Loading…

Nächste Überflüge (nächste 24 Stunden)

TLE

AktuellSource: Space-Track

Epoche: Sep 14, 2026, 15:30 UTC

1 23002U 94011D   26257.64649319  .00000000  00000-0 -56263-4 0  9993
2 23002  82.5615 239.9250 0006956 359.9685   0.1405 12.63524683502789

Verfolge COSMOS 2271 in Echtzeit mit AllMySat

Download on the App Store